Date String (YYYY-MM-DD hh:mm:ss) UTC,Instrument flags,absolute air pressure of the measurement (hPa),sample flow rate (lpm),inlet stack bypass flow (lpm),air temperature of the measurement (°C),ambient temperature measured by the external sensor (°C),aerosol sample conditioner tube jacket temperature (°C),OPC LED temperature (°C),internal box temperature (°C),relative humidity of the measurement (%),span deviation,mass concentration of particles derived from Lorenz-Mie calculation of OPC scattering (μg/m³),mass concentration of particles derived from Lorenz-Mie calculation of OPC scattering (μg/m³),mass concentration of particles derived from Lorenz-Mie calculation of OPC scattering (μg/m³)
DateTimeUTC,F1_M11,P_M11,Q1_M11,Q2_M11,T1_M11,T2_M11,T3_M11,T4_M11,T5_M11,U1_M11,ZSPAN_M11,X2_M11,X0_M11,X1_M11
2023-08-02 07:00:00,SystemResetWarning,0835.1,5.02,000.00,031.6,028.6,000.0,039.5,031.9,34.8,0000.0,0004.73,0010.64,0003.61
2023-08-02 07:01:00,SystemResetWarning,0834.9,4.98,000.00,031.7,028.7,000.0,039.5,032.0,34.6,0000.0,0004.73,0010.65,0003.63
2023-08-02 07:02:00,SystemResetWarning,0834.9,5.02,000.00,031.7,028.7,000.0,039.5,032.0,34.4,0000.0,0004.69,0010.67,0003.63
2023-08-02 07:03:00,SystemResetWarning,0834.9,4.99,000.00,031.8,028.7,000.0,039.6,032.0,34.4,0000.0,0004.72,0011.07,0003.65
2023-08-02 07:04:00,SystemResetWarning,0835.1,4.99,000.00,031.8,027.4,000.0,039.5,031.9,34.4,0000.0,0004.76,0011.53,0003.65
2023-08-02 07:05:00,SystemResetWarning,0835.1,5.01,000.00,031.8,026.0,000.0,039.4,031.7,34.4,0000.0,0004.79,0011.70,0003.65
2023-08-02 07:06:00,SystemResetWarning,0834.7,5.01,000.00,031.7,025.6,000.0,039.4,031.4,34.6,0000.0,0004.80,0012.53,0003.66
2023-08-02 07:07:00,SystemResetWarning,0834.8,4.98,000.00,031.5,025.9,000.0,039.4,031.3,35.0,0000.0,0004.86,0012.66,0003.66
2023-08-02 07:08:00,SystemResetWarning,0834.6,5.02,000.00,031.4,026.2,000.0,039.4,031.3,35.1,0000.0,0004.94,0012.39,0003.68
2023-08-02 07:09:00,SystemResetWarning,0834.7,4.99,000.00,031.6,026.6,000.0,039.4,031.5,34.7,0000.0,0005.00,0012.75,0003.69
2023-08-02 07:10:00,SystemResetWarning,0834.6,4.99,000.00,031.7,027.0,000.0,039.5,031.6,34.5,0000.0,0005.08,0013.17,0003.71
2023-08-02 07:11:00,SystemResetWarning,0834.9,5.02,000.00,031.7,027.3,000.0,039.5,031.6,34.3,0000.0,0005.15,0013.41,0003.72
2023-08-02 07:12:00,SystemResetWarning,0835.0,5.00,000.00,031.7,027.5,000.0,039.5,031.6,34.3,0000.0,0005.16,0013.87,0003.74
2023-08-02 07:13:00,SystemResetWarning,0835.1,4.99,000.00,031.7,027.7,000.0,039.5,031.7,34.2,0000.0,0005.17,0014.43,0003.77
2023-08-02 07:14:00,SystemResetWarning,0835.0,4.99,000.00,031.7,027.9,000.0,039.6,031.7,34.3,0000.0,0005.26,0014.98,0003.77
2023-08-02 07:15:00,SystemResetWarning,0835.0,4.99,000.00,031.7,028.1,000.0,039.6,031.7,34.3,0000.0,0005.33,0015.28,0003.79
2023-08-02 07:16:00,SystemResetWarning,0835.0,5.00,000.00,031.7,028.2,000.0,039.6,031.7,34.2,0000.0,0005.34,0015.35,0003.82
2023-08-02 07:17:00,SystemResetWarning,0834.9,5.00,000.00,031.7,028.3,000.0,039.6,031.7,34.3,0000.0,0005.37,0014.62,0003.84
2023-08-02 07:18:00,SystemResetWarning,0835.1,5.00,000.00,031.6,028.3,000.0,039.7,031.8,34.3,0000.0,0005.42,0014.27,0003.86
2023-08-02 07:19:00,SystemResetWarning,0835.1,5.00,000.00,031.6,028.4,000.0,039.7,031.8,34.3,0000.0,0005.42,0014.66,0003.88
2023-08-02 07:20:00,SystemResetWarning,0835.0,5.00,000.00,031.6,028.5,000.0,039.7,031.8,34.2,0000.0,0005.39,0014.22,0003.88
2023-08-02 07:21:00,SystemResetWarning,0834.9,5.00,000.00,031.6,028.5,000.0,039.7,031.9,34.2,0000.0,0005.33,0013.76,0003.88
2023-08-02 07:22:00,SystemResetWarning,0834.9,5.00,000.00,031.6,028.6,000.0,039.7,031.9,34.2,0000.0,0005.28,0014.34,0003.88
2023-08-02 07:23:00,SystemResetWarning,0834.6,5.00,000.00,031.5,028.6,000.0,039.7,031.9,34.2,0000.0,0005.30,0013.99,0003.88
2023-08-02 07:24:00,SystemResetWarning,0834.6,5.00,000.00,031.5,028.7,000.0,039.7,031.9,34.2,0000.0,0005.32,0013.44,0003.87
2023-08-02 07:25:00,SystemResetWarning,0834.7,5.00,000.00,031.5,028.7,000.0,039.7,031.9,34.0,0000.0,0005.26,0012.61,0003.88
2023-08-02 07:26:00,SystemResetWarning,0834.5,4.99,000.00,031.5,028.7,000.0,039.7,032.0,34.0,0000.0,0005.20,0011.81,0003.89
2023-08-02 07:27:00,SystemResetWarning,0834.5,4.99,000.00,031.5,027.2,000.0,039.6,031.8,33.8,0000.0,0005.17,0011.49,0003.91
2023-08-02 07:28:00,SystemResetWarning,0834.5,5.00,000.00,031.4,025.8,000.0,039.4,031.6,33.8,0000.0,0005.17,0011.48,0003.92
2023-08-02 07:29:00,SystemResetWarning,0834.5,5.01,000.00,031.2,025.5,000.0,039.3,031.2,34.2,0000.0,0005.15,0011.37,0003.91
2023-08-02 07:30:00,SystemResetWarning,0834.5,5.01,000.00,031.0,025.8,000.0,039.3,031.1,34.7,0000.0,0005.11,0010.85,0003.91
2023-08-02 07:31:00,SystemResetWarning,0834.4,5.00,000.00,030.9,026.2,000.0,039.3,031.1,34.9,0000.0,0005.17,0011.02,0003.94
2023-08-02 07:32:00,SystemResetWarning,0834.4,5.00,000.00,030.9,026.5,000.0,039.3,031.2,34.9,0000.0,0005.20,0011.05,0003.95
2023-08-02 07:33:00,SystemResetWarning,0834.4,4.99,000.00,030.8,026.9,000.0,039.3,031.3,34.8,0000.0,0005.23,0010.17,0003.97
2023-08-02 07:34:00,SystemResetWarning,0834.4,5.00,000.00,030.8,027.2,000.0,039.2,031.3,34.7,0000.0,0005.24,0010.22,0003.98
2023-08-02 07:35:00,SystemResetWarning,0834.4,5.01,000.00,030.7,027.4,000.0,039.2,031.4,34.7,0000.0,0005.27,0010.34,0003.99
2023-08-02 07:36:00,SystemResetWarning,0834.3,5.01,000.00,030.7,027.6,000.0,039.2,031.4,34.3,0000.0,0005.34,0010.43,0004.00
2023-08-02 07:37:00,SystemResetWarning,0834.4,5.00,000.00,030.7,027.8,000.0,039.2,031.4,34.1,0000.0,0005.32,0010.35,0004.00
2023-08-02 07:38:00,SystemResetWarning,0834.3,5.00,000.00,030.7,027.9,000.0,039.1,031.4,34.1,0000.0,0005.31,0010.25,0004.00
2023-08-02 07:39:00,SystemResetWarning,0834.4,5.00,000.00,030.7,028.1,000.0,039.1,031.5,34.0,0000.0,0005.33,0010.26,0004.00
2023-08-02 07:40:00,SystemResetWarning,0834.3,5.00,000.00,030.6,028.1,000.0,039.1,031.5,33.9,0000.0,0005.32,0010.26,0004.01
2023-08-02 07:41:00,SystemResetWarning,0834.3,5.00,000.00,030.6,028.2,000.0,039.1,031.5,33.9,0000.0,0005.37,0010.42,0004.02
2023-08-02 07:42:00,SystemResetWarning,0834.3,5.00,000.00,030.6,028.3,000.0,039.1,031.5,33.9,0000.0,0005.37,0010.37,0004.01
2023-08-02 07:43:00,SystemResetWarning,0834.2,5.00,000.00,030.6,028.4,000.0,039.0,031.6,33.9,0000.0,0005.43,0010.59,0004.01
2023-08-02 07:44:00,SystemResetWarning,0834.3,5.00,000.00,030.6,028.4,000.0,039.0,031.6,33.9,0000.0,0005.47,0011.46,0004.00
2023-08-02 07:45:00,SystemResetWarning,0834.3,5.00,000.00,030.6,028.5,000.0,039.0,031.6,33.9,0000.0,0005.48,0011.61,0004.00
2023-08-02 07:46:00,SystemResetWarning,0834.4,5.00,000.00,030.6,028.5,000.0,039.0,031.6,33.8,0000.0,0005.46,0011.92,0003.99
2023-08-02 07:47:00,SystemResetWarning,0834.4,5.00,000.00,030.6,028.5,000.0,039.0,031.6,33.7,0000.0,0005.46,0012.28,0003.99
2023-08-02 07:48:00,SystemResetWarning,0834.4,5.00,000.00,030.6,028.6,000.0,039.0,031.7,33.4,0000.0,0005.52,0012.47,0003.98
2023-08-02 07:49:00,SystemResetWarning,0834.2,5.00,000.00,030.6,028.6,000.0,039.0,031.7,33.0,0000.0,0005.54,0012.63,0003.97
2023-08-02 07:50:00,SystemResetWarning,0834.3,5.00,000.00,030.6,028.6,000.0,039.0,031.7,32.7,0000.0,0005.50,0012.78,0003.96
2023-08-02 07:51:00,SystemResetWarning,0834.2,5.00,000.00,030.6,028.7,000.0,039.0,031.7,32.3,0000.0,0005.46,0013.07,0003.94
2023-08-02 07:52:00,SystemResetWarning,0834.2,5.00,000.00,030.6,028.7,000.0,039.0,031.7,31.9,0000.0,0005.42,0013.94,0003.92
2023-08-02 07:53:00,SystemResetWarning,0834.2,5.00,000.00,030.6,028.3,000.0,039.0,031.7,31.8,0000.0,0005.29,0013.58,0003.88
2023-08-02 07:54:00,SystemResetWarning,0834.1,4.98,000.00,030.5,026.6,000.0,038.8,031.4,32.0,0000.0,0005.18,0013.51,0003.85
2023-08-02 07:55:00,SystemResetWarning,0834.0,5.02,000.00,030.4,025.6,000.0,038.7,031.2,31.6,0000.0,0005.10,0012.81,0003.83
2023-08-02 07:56:00,SystemResetWarning,0834.0,5.00,000.00,030.3,025.5,000.0,038.7,031.0,30.8,0000.0,0005.05,0012.66,0003.79
2023-08-02 07:57:00,SystemResetWarning,0834.0,4.99,000.00,030.1,025.9,000.0,038.7,030.9,30.7,0000.0,0005.05,0012.72,0003.76
2023-08-02 07:58:00,SystemResetWarning,0834.0,5.00,000.00,030.1,026.3,000.0,038.7,031.0,30.5,0000.0,0005.04,0012.33,0003.74
2023-08-02 07:59:00,SystemResetWarning,0834.0,5.00,000.00,030.0,026.6,000.0,038.7,031.0,30.3,0000.0,0004.96,0012.43,0003.72
